Weather History for Lancaster, CA

Change the Weather History Date:

Thursday, September 27, 2012

  Actual Average Record
Temperature  
Mean Temperature 75 °F 70 °F  
Max Temperature 95 °F 87 °F 103 °F (2003)
Min Temperature 54 °F 53 °F 30 °F (1948)
Degree Days  
Heating Degree Days 0    
Month to date heating degree days 0  
Since 1 July heating degree days 0  
Cooling Degree Days 10    
Month to date cooling degree days 367  
Year to date cooling degree days 2137  
Growing Degree Days 24 (Base 50)    
Moisture  
Dew Point 35 °F    
Average Humidity 25    
Maximum Humidity 38    
Minimum Humidity 12    
Precipitation  
Precipitation 0.00 in 0.01 in 0.00 in (2014)
Month to date precipitation 0.02 0.13  
Year to date precipitation 1.74 5.23  
Since 1 July precipitation 0.04 0.32  
Snow  
Snow 0.00 in - 0.00 in ()
Month to date snowfall 0.0  
Since 1 July snowfall 0.0  
Since 1 September snowfall 0.0  
Snow Depth 0.00 in    
Sea Level Pressure  
Sea Level Pressure 29.91 in    
Wind  
Wind Speed 6 mph (West)    
Max Wind Speed 21 mph    
Max Gust Speed 25 mph    
Visibility 10 miles    
Events      
T = Trace of Precipitation, MM = Missing Value Source: NWS Daily Summary

Daily Weather History Graph

Daily Weather History Graph

Search for Another Location

Airport:

Trip Planner

Search our weather history database for the weather conditions in past years. The results will help you decide how hot, cold, wet, or windy it might be!

Date:

Astronomy

Sep. 27, 2012 Rise Set
Actual Time 6:45 AM PDT 6:41 PM PDT
Civil Twilight 6:19 AM PDT 7:06 PM PDT
Nautical Twilight 5:50 AM PDT 7:36 PM PDT
Astronomical Twilight 5:21 AM PDT 8:05 PM PDT
Moon 5:12 PM PDT (9/27) 4:23 AM PDT (9/27)
Length of Visible Light 12h 47m
Length of Day
11h 56m
Waxing Gibbous, 94% of the Moon is Illuminated
Sep 27
Waxing Gibbous
Sep 29
Full
Oct 8
Last Quarter
Oct 15
New
Oct 21
First Quarter

Hourly Weather History & Observations

Time (PDT) Temp. Dew Point Humidity Pressure Visibility Wind Dir Wind Speed Gust Speed Precip Events Conditions
12:56 AM 62.1 °F 32.0 °F 32% 29.89 in 10.0 mi West 4.6 mph - N/A   Clear
1:56 AM 60.1 °F 30.9 °F 33% 29.90 in 10.0 mi WNW 6.9 mph - N/A   Clear
2:56 AM 57.0 °F 30.0 °F 36% 29.90 in 10.0 mi Calm Calm - N/A   Clear
3:56 AM 61.0 °F 32.0 °F 34% 29.91 in 10.0 mi Calm Calm - N/A   Clear
4:56 AM 55.9 °F 30.0 °F 37% 29.91 in 10.0 mi West 5.8 mph - N/A   Clear
5:56 AM 55.0 °F 30.9 °F 40% 29.92 in 10.0 mi Calm Calm - N/A   Clear
6:56 AM 55.0 °F 30.9 °F 40% 29.95 in 10.0 mi Calm Calm - N/A   Clear
7:56 AM 60.1 °F 34.0 °F 38% 29.97 in 10.0 mi Calm Calm - N/A   Partly Cloudy
8:56 AM 69.1 °F 33.1 °F 26% 29.97 in 10.0 mi Calm Calm - N/A   Clear
9:56 AM 75.9 °F 35.1 °F 23% 29.97 in 10.0 mi NE 3.5 mph - N/A   Clear
10:56 AM 81.0 °F 34.0 °F 18% 29.96 in 10.0 mi ENE 4.6 mph - N/A   Partly Cloudy
11:56 AM 84.9 °F 33.1 °F 16% 29.95 in 10.0 mi Calm Calm - N/A   Clear
12:56 PM 90.0 °F 35.1 °F 14% 29.93 in 10.0 mi Variable 6.9 mph - N/A   Partly Cloudy
1:56 PM 91.0 °F 35.1 °F 14% 29.89 in 10.0 mi Calm Calm - N/A   Clear
2:56 PM 91.9 °F 34.0 °F 13% 29.88 in 10.0 mi East 8.1 mph - N/A   Clear
3:56 PM 93.0 °F 33.1 °F 12% 29.86 in 10.0 mi Variable 4.6 mph - N/A   Partly Cloudy
4:56 PM 91.0 °F 37.9 °F 15% 29.85 in 10.0 mi West 11.5 mph 17.3 mph N/A   Clear
5:56 PM 88.0 °F 37.9 °F 17% 29.86 in 10.0 mi WSW 17.3 mph 25.3 mph N/A   Clear
6:56 PM 82.0 °F 43.0 °F 25% 29.87 in 10.0 mi WSW 12.7 mph - N/A   Clear
7:56 PM 78.1 °F 45.0 °F 31% 29.89 in 10.0 mi West 9.2 mph - N/A   Clear
8:56 PM 77.0 °F 43.0 °F 30% 29.91 in 10.0 mi West 13.8 mph - N/A   Clear
9:56 PM 75.9 °F 43.0 °F 31% - 10.0 mi West 12.7 mph - N/A   Clear
10:56 PM 73.9 °F 39.9 °F 29% - 10.0 mi West 9.2 mph - N/A   Clear
11:56 PM 73.0 °F 39.0 °F 29% - 10.0 mi West 10.4 mph - N/A   Partly Cloudy